Location: Eurasberg
(48.3353°N, 11.0839°E)
Time: 13:22:26
(UTC+00:00)

Timation 1 Rocket - Pass Details

Date: 25 April 2026
Orbit: 895 x 908 km, 70.0° (Epoch: 14 May)

Event Time Altitude Azimuth Distance (km) Brightness Sun altitude
Exits shadow 22:07:44 39° 89° (E) 1,344 5.0 -26.5°
Drops below altitude 10° 22:12:29 10° 41° (NE) 2,602 7.1 -26.8°
Sets 22:15:07 0° 35° (NE) 3,547 8.0 -26.9°
